McGuire AFB, NJ

1:50 PM EDT on March 23, 2017 (GMT -0400)
McGuire Air Force Base

Weather History for KWRI - March, 2013

Change the Weather History Date:

Monday, March 25, 2013

  Actual Average Record
Temperature  
Mean Temperature 35 °F -  
Max Temperature 38 °F 54 °F 71 °F (2016)
Min Temperature 32 °F 34 °F 14 °F (2014)
Degree Days  
Heating Degree Days 30    
Moisture  
Dew Point 32 °F    
Average Humidity 93    
Maximum Humidity 100    
Minimum Humidity 68    
Precipitation  
Precipitation 0.35 in - - ()
Sea Level Pressure  
Sea Level Pressure 29.53 in    
Wind  
Wind Speed 11 mph (North)    
Max Wind Speed 18 mph    
Max Gust Speed 25 mph    
Visibility 5 miles    
Events Fog , Rain , Snow    
Averages and records for this station are not official NWS values.
T = Trace of Precipitation, MM = Missing Value Source: NWS Daily Summary

Daily Weather History Graph

Daily Weather History Graph

Search for Another Location

Airport or City:

Trip Planner

Search our weather history database for the weather conditions in past years. The results will help you decide how hot, cold, wet, or windy it might be!

Date:

Astronomy

Mar. 25, 2013 Rise Set
Actual Time 6:53 AM EDT 7:15 PM EDT
Civil Twilight 6:26 AM EDT 7:42 PM EDT
Nautical Twilight 5:54 AM EDT 8:14 PM EDT
Astronomical Twilight 5:21 AM EDT 8:47 PM EDT
Moon 5:44 PM EDT (3/25) 5:35 AM EDT (3/25)
Length of Visible Light 13h 16m
Length of Day
12h 22m
Waxing Gibbous, 96% of the Moon is Illuminated
Mar 25
Waxing Gibbous
Mar 27
Full
Apr 3
Last Quarter
Apr 10
New
Apr 18
First Quarter

Hourly Weather History & Observations

Time (EDT) Temp. Windchill Dew Point Humidity Pressure Visibility Wind Dir Wind Speed Gust Speed Precip Events Conditions
12:55 AM 35.8 °F - 26.6 °F 69% 29.69 in 10.0 mi Calm Calm - N/A   Mostly Cloudy
1:55 AM 35.6 °F 30.7 °F 27.9 °F 73% 29.66 in 10.0 mi NE 5.8 mph - N/A   Overcast
2:55 AM 36.1 °F 29.3 °F 27.7 °F 71% 29.61 in 10.0 mi NE 9.2 mph - N/A   Overcast
3:55 AM 36.7 °F 29.4 °F 27.9 °F 70% 29.57 in 10.0 mi NE 10.4 mph - N/A   Overcast
4:55 AM 37.0 °F 31.6 °F 28.2 °F 70% 29.56 in 10.0 mi NE 6.9 mph - N/A   Scattered Clouds
5:55 AM 38.1 °F 29.1 °F 28.4 °F 68% 29.54 in 10.0 mi NE 16.1 mph 20.7 mph N/A   Overcast
6:28 AM 37.4 °F 28.5 °F 28.4 °F 70% 29.54 in 10.0 mi ENE 15.0 mph - N/A   Overcast
6:53 AM 37.4 °F 29.3 °F 30.2 °F 75% 29.55 in 10.0 mi ENE 12.7 mph 19.6 mph N/A   Overcast
6:55 AM 37.9 °F 30.5 °F 29.8 °F 73% 29.55 in 10.0 mi ENE 11.5 mph 19.6 mph 0.00 in   Overcast
7:11 AM 37.4 °F 28.9 °F 30.2 °F 75% 29.55 in 10.0 mi NE 13.8 mph - N/A   Overcast
7:22 AM 35.6 °F 27.5 °F 32.0 °F 87% 29.56 in 7.0 mi NE 11.5 mph - N/A   Overcast
7:29 AM 35.6 °F 26.2 °F 32.0 °F 87% 29.56 in 6.0 mi ENE 15.0 mph - N/A Snow Light Snow
7:55 AM 34.3 °F 25.5 °F 32.0 °F 91% 29.57 in 5.0 mi NE 12.7 mph - 0.04 in Snow Light Snow
7:56 AM 33.8 °F 24.8 °F 32.0 °F 93% 29.57 in 5.0 mi NE 12.7 mph - N/A Snow Light Snow
8:03 AM 33.8 °F 25.3 °F 32.0 °F 93% 29.57 in 9.0 mi NE 11.5 mph - N/A Rain Light Freezing Rain
8:12 AM 33.8 °F 24.8 °F 32.0 °F 93% 29.57 in 7.0 mi NE 12.7 mph - N/A Snow Light Snow
8:17 AM 33.8 °F 25.3 °F 32.0 °F 93% 29.57 in 2.5 mi NNE 11.5 mph - N/A Snow Light Snow
8:19 AM 33.8 °F 25.8 °F 32.0 °F 93% 29.57 in 1.8 mi NNE 10.4 mph - N/A Snow Light Snow
8:20 AM 33.8 °F 25.8 °F 32.0 °F 93% 29.56 in 1.5 mi NNE 10.4 mph - N/A Snow Light Snow
8:21 AM 33.8 °F 26.4 °F 32.0 °F 93% 29.56 in 1.2 mi NNE 9.2 mph - N/A Snow Light Snow
8:23 AM 33.8 °F 26.4 °F 32.0 °F 93% 29.56 in 1.0 mi North 9.2 mph - N/A Snow Light Snow
8:25 AM 33.8 °F 26.4 °F 32.0 °F 93% 29.56 in 1.0 mi North 9.2 mph - N/A Snow Light Snow
8:29 AM 32.0 °F 23.6 °F 32.0 °F 100% 29.56 in 1.0 mi North 10.4 mph - N/A Snow Light Snow
8:33 AM 32.0 °F 23.6 °F 32.0 °F 100% 29.56 in 1.2 mi North 10.4 mph - N/A Snow Light Snow
8:38 AM 32.0 °F 23.6 °F 32.0 °F 100% 29.55 in 1.2 mi North 10.4 mph - N/A Snow Light Snow
8:39 AM 32.0 °F 23.0 °F 32.0 °F 100% 29.55 in 1.0 mi North 11.5 mph - N/A Snow Light Snow
8:44 AM 32.0 °F 23.0 °F 32.0 °F 100% 29.55 in 0.8 mi North 11.5 mph - N/A Snow Light Snow
8:46 AM 32.0 °F 23.6 °F 32.0 °F 100% 29.55 in 0.8 mi North 10.4 mph - N/A Snow Light Snow
8:47 AM 32.0 °F 24.2 °F 32.0 °F 100% 29.55 in 0.8 mi North 9.2 mph - N/A Snow Light Snow
8:50 AM 32.0 °F 23.6 °F 32.0 °F 100% 29.55 in 0.8 mi North 10.4 mph - N/A Snow Light Snow
8:51 AM 32.0 °F 23.6 °F 32.0 °F 100% 29.55 in 0.8 mi North 10.4 mph - N/A Snow Light Snow
8:53 AM 32.0 °F 23.6 °F 32.0 °F 100% 29.55 in 0.5 mi North 10.4 mph - N/A Fog , Snow Snow
8:54 AM 32.0 °F 23.6 °F 32.0 °F 100% 29.55 in 0.8 mi North 10.4 mph - N/A Snow Light Snow
8:55 AM 32.5 °F 24.8 °F 31.5 °F 96% 29.55 in 0.8 mi North 9.2 mph - 0.07 in Snow Light Snow
8:56 AM 32.0 °F 23.6 °F 32.0 °F 100% 29.55 in 0.5 mi North 10.4 mph - N/A Fog , Snow Snow
8:58 AM 32.0 °F 23.6 °F 32.0 °F 100% 29.55 in 0.8 mi North 10.4 mph - N/A Snow Light Snow
8:59 AM 32.0 °F 23.6 °F 32.0 °F 100% 29.55 in 0.8 mi North 10.4 mph - N/A Snow Light Snow
9:02 AM 32.0 °F 23.0 °F 32.0 °F 100% 29.54 in 0.8 mi North 11.5 mph - N/A Snow Light Snow
9:03 AM 32.0 °F 22.5 °F 32.0 °F 100% 29.55 in 0.8 mi North 12.7 mph - N/A Snow Light Snow
9:07 AM 32.0 °F 23.6 °F 32.0 °F 100% 29.55 in 1.0 mi North 10.4 mph - N/A Snow Light Snow
9:09 AM 32.0 °F 23.6 °F 32.0 °F 100% 29.54 in 1.0 mi NNE 10.4 mph - N/A Snow Light Snow
9:20 AM 32.0 °F 23.0 °F 32.0 °F 100% 29.54 in 1.2 mi NNE 11.5 mph - N/A Snow Light Snow
9:27 AM 32.0 °F 23.6 °F 32.0 °F 100% 29.55 in 1.5 mi NNE 10.4 mph - N/A Snow Light Snow
9:31 AM 32.0 °F 23.6 °F 32.0 °F 100% 29.54 in 1.2 mi NNE 10.4 mph - N/A Snow Light Snow
9:37 AM 32.0 °F 22.1 °F 32.0 °F 100% 29.54 in 1.2 mi NNE 13.8 mph - N/A Snow Light Snow
9:40 AM 32.0 °F 22.5 °F 32.0 °F 100% 29.54 in 1.2 mi NNE 12.7 mph - N/A Snow Light Snow
9:42 AM 32.0 °F 22.5 °F 32.0 °F 100% 29.54 in 1.0 mi NNE 12.7 mph - N/A Snow Light Snow
9:45 AM 32.0 °F 22.5 °F 32.0 °F 100% 29.54 in 1.0 mi NNE 12.7 mph - N/A Snow Light Snow
9:50 AM 32.0 °F 22.5 °F 32.0 °F 100% 29.54 in 1.0 mi NNE 12.7 mph - N/A Snow Light Snow
9:51 AM 32.0 °F 22.1 °F 32.0 °F 100% 29.54 in 1.0 mi NNE 13.8 mph - N/A Snow Light Snow
9:55 AM 32.7 °F 23.4 °F 32.0 °F 97% 29.53 in 1.0 mi NNE 12.7 mph - 0.05 in Snow Light Snow
9:57 AM 32.0 °F 22.5 °F 32.0 °F 100% 29.53 in 1.0 mi NNE 12.7 mph - N/A Snow Light Snow
9:58 AM 32.0 °F 22.5 °F 32.0 °F 100% 29.53 in 1.0 mi NNE 12.7 mph - N/A Snow Light Snow
10:00 AM 32.0 °F 22.1 °F 32.0 °F 100% 29.53 in 1.0 mi NNE 13.8 mph - N/A Snow Light Snow
10:09 AM 32.0 °F 21.6 °F 32.0 °F 100% 29.53 in 1.0 mi NNE 15.0 mph - N/A Snow Light Snow
10:15 AM 32.0 °F 22.5 °F 32.0 °F 100% 29.53 in 1.0 mi NNE 12.7 mph - N/A Snow Light Snow
10:16 AM 33.8 °F 24.8 °F 32.0 °F 93% 29.53 in 1.0 mi NNE 12.7 mph - N/A Snow Light Snow
10:20 AM 33.8 °F 24.8 °F 32.0 °F 93% 29.52 in 1.0 mi NNE 12.7 mph - N/A Snow Light Snow
10:22 AM 32.0 °F 22.5 °F 32.0 °F 100% 29.52 in 1.0 mi NNE 12.7 mph - N/A Snow Light Snow
10:24 AM 32.0 °F 21.6 °F 32.0 °F 100% 29.52 in 1.2 mi NNE 15.0 mph - N/A Snow Light Snow
10:28 AM 33.8 °F 23.9 °F 32.0 °F 93% 29.52 in 1.0 mi NNE 15.0 mph - N/A Snow Light Snow
10:34 AM 33.8 °F 24.3 °F 32.0 °F 93% 29.52 in 1.0 mi NNE 13.8 mph - N/A Snow Light Snow
10:36 AM 33.8 °F 24.3 °F 32.0 °F 93% 29.52 in 1.0 mi NNE 13.8 mph - N/A Snow Light Snow
10:40 AM 33.8 °F 24.3 °F 32.0 °F 93% 29.52 in 1.2 mi NNE 13.8 mph - N/A Snow Light Snow
10:43 AM 33.8 °F 23.9 °F 32.0 °F 93% 29.52 in 1.2 mi NNE 15.0 mph - N/A Snow Light Snow
10:44 AM 33.8 °F 24.3 °F 32.0 °F 93% 29.52 in 1.5 mi NNE 13.8 mph - N/A Snow Light Snow
10:47 AM 33.8 °F 24.3 °F 32.0 °F 93% 29.52 in 1.8 mi NNE 13.8 mph - N/A Snow Light Snow
10:49 AM 33.8 °F 23.5 °F 32.0 °F 93% 29.51 in 1.8 mi NNE 16.1 mph - N/A Snow Light Snow
10:50 AM 33.8 °F 23.2 °F 32.0 °F 93% 29.51 in 2.0 mi NNE 17.3 mph - N/A Snow Light Snow
10:55 AM 33.1 °F 22.6 °F 32.2 °F 96% 29.51 in 2.5 mi NNE 16.1 mph - 0.04 in Snow Light Snow
10:59 AM 33.8 °F 23.9 °F 32.0 °F 93% 29.51 in 3.0 mi NNE 15.0 mph - N/A Snow Light Snow
11:23 AM 33.8 °F 23.5 °F 32.0 °F 93% 29.51 in 2.5 mi NNE 16.1 mph - N/A Snow Light Snow
11:48 AM 33.8 °F 23.5 °F 32.0 °F 93% 29.49 in 3.0 mi NNE 16.1 mph - N/A Snow Light Snow
11:55 AM 33.8 °F 23.2 °F 32.5 °F 95% 29.49 in 4.0 mi NNE 17.3 mph - 0.01 in Snow Light Snow
12:04 PM 33.8 °F 22.8 °F 32.0 °F 93% 29.48 in 6.0 mi NNE 18.4 mph - N/A Snow Light Snow
12:22 PM 33.8 °F 23.2 °F 32.0 °F 93% 29.48 in 6.0 mi NNE 17.3 mph - N/A Snow Light Snow
12:31 PM 33.8 °F 23.2 °F 32.0 °F 93% 29.47 in 4.0 mi NNE 17.3 mph - N/A Snow Light Snow
12:55 PM 34.5 °F 24.1 °F 32.7 °F 93% 29.46 in 8.0 mi NNE 17.3 mph 25.3 mph 0.01 in Snow Light Snow
1:00 PM 33.8 °F 23.2 °F 32.0 °F 93% 29.46 in 8.0 mi NNE 17.3 mph - N/A Snow Light Snow
1:01 PM 33.8 °F 23.5 °F 32.0 °F 93% 29.46 in 9.0 mi NNE 16.1 mph - N/A Snow Light Snow
1:36 PM 33.8 °F 22.8 °F 32.0 °F 93% 29.46 in 5.0 mi NNE 18.4 mph - N/A Snow Light Snow
1:43 PM 33.8 °F 23.9 °F 32.0 °F 93% 29.46 in 5.0 mi NNE 15.0 mph - N/A Snow Light Snow
1:55 PM 34.3 °F 24.2 °F 32.5 °F 93% 29.46 in 8.0 mi NNE 16.1 mph 21.9 mph 0.01 in Snow Light Snow
2:38 PM 35.6 °F 25.9 °F 32.0 °F 87% 29.45 in 10.0 mi NE 16.1 mph - N/A Snow Light Snow
2:41 PM 35.6 °F 25.9 °F 32.0 °F 87% 29.45 in 10.0 mi NE 16.1 mph - N/A Snow Light Snow
2:55 PM 35.1 °F 25.2 °F 32.7 °F 91% 29.45 in 9.0 mi NNE 16.1 mph - 0.00 in Snow Light Snow
3:04 PM 35.6 °F 26.2 °F 32.0 °F 87% 29.45 in 8.0 mi NNE 15.0 mph - N/A Snow Light Snow
3:06 PM 35.6 °F 25.5 °F 32.0 °F 87% 29.45 in 7.0 mi NNE 17.3 mph - N/A Snow Light Snow
3:29 PM 33.8 °F 25.3 °F 32.0 °F 93% 29.45 in 5.0 mi NNE 11.5 mph - N/A Snow Light Snow
3:40 PM 33.8 °F 26.4 °F 32.0 °F 93% 29.45 in 2.5 mi NNE 9.2 mph - N/A Snow Light Snow
3:55 PM 33.4 °F 26.6 °F 32.2 °F 95% 29.45 in 2.5 mi NNE 8.1 mph - 0.03 in Snow Light Snow
4:02 PM 33.8 °F 25.8 °F 32.0 °F 93% 29.45 in 3.0 mi NNE 10.4 mph - N/A Snow Light Snow
4:55 PM 34.2 °F 26.8 °F 33.3 °F 97% 29.45 in 10.0 mi North 9.2 mph - 0.03 in Rain , Snow Light Rain
5:20 PM 35.6 °F 28.0 °F 33.8 °F 93% 29.45 in 10.0 mi NNW 10.4 mph - N/A Rain Light Rain
5:32 PM 35.6 °F 27.1 °F 33.8 °F 93% 29.46 in 10.0 mi NNW 12.7 mph - N/A Rain Light Rain
5:46 PM 35.6 °F 27.5 °F 33.8 °F 93% 29.46 in 10.0 mi NNW 11.5 mph - N/A Rain Light Rain
5:55 PM 35.4 °F 26.8 °F 33.8 °F 94% 29.47 in 10.0 mi NNW 12.7 mph - 0.00 in Rain Light Rain
6:38 PM 35.6 °F 28.6 °F 33.8 °F 93% 29.48 in 10.0 mi NNW 9.2 mph - N/A Rain Light Rain
6:55 PM 35.1 °F 27.9 °F 33.8 °F 95% 29.50 in 10.0 mi NW 9.2 mph - 0.01 in Rain Light Rain
7:07 PM 35.6 °F 27.5 °F 33.8 °F 93% 29.51 in 10.0 mi NW 11.5 mph - N/A Rain Light Rain
7:55 PM 35.2 °F 27.6 °F 33.6 °F 94% 29.53 in 10.0 mi WNW 10.4 mph - 0.01 in Rain Light Rain
8:24 PM 35.6 °F 27.1 °F 33.8 °F 93% 29.54 in 10.0 mi WNW 12.7 mph - N/A Rain Light Rain
8:32 PM 35.6 °F 27.1 °F 33.8 °F 93% 29.55 in 10.0 mi WNW 12.7 mph - N/A Rain Light Rain
8:55 PM 35.2 °F 26.2 °F 34.0 °F 95% 29.55 in 10.0 mi WNW 13.8 mph - 0.02 in Rain Light Rain
9:31 PM 35.6 °F 27.5 °F 33.8 °F 93% 29.57 in 10.0 mi WNW 11.5 mph - N/A   Overcast
9:34 PM 35.6 °F 28.0 °F 33.8 °F 93% 29.57 in 10.0 mi WNW 10.4 mph - N/A   Overcast
9:36 PM 35.6 °F 28.0 °F 33.8 °F 93% 29.57 in 10.0 mi WNW 10.4 mph - N/A Rain Light Rain
9:45 PM 35.6 °F 27.1 °F 33.8 °F 93% 29.57 in 10.0 mi WNW 12.7 mph - N/A Rain Light Rain
9:47 PM 35.6 °F 27.1 °F 33.8 °F 93% 29.57 in 10.0 mi WNW 12.7 mph - N/A Rain Light Rain
9:55 PM 35.8 °F 27.3 °F 34.2 °F 94% 29.58 in 10.0 mi WNW 12.7 mph - 0.01 in Rain Light Rain
9:59 PM 35.6 °F 27.5 °F 33.8 °F 93% 29.58 in 10.0 mi WNW 11.5 mph - N/A Rain Light Rain
10:01 PM 35.6 °F 27.1 °F 33.8 °F 93% 29.58 in 10.0 mi WNW 12.7 mph - N/A   Overcast
10:32 PM 35.6 °F 28.0 °F 33.8 °F 93% 29.59 in 10.0 mi WNW 10.4 mph - N/A Rain Light Rain
10:54 PM 35.6 °F 26.2 °F 33.8 °F 93% 29.59 in 10.0 mi NW 15.0 mph - N/A Rain Light Rain
10:55 PM 36.1 °F 27.3 °F 34.5 °F 94% 29.59 in 10.0 mi NW 13.8 mph - 0.01 in Rain Light Rain
11:02 PM 35.6 °F 27.1 °F 33.8 °F 93% 29.59 in 10.0 mi NW 12.7 mph - N/A   Overcast
11:07 PM 35.6 °F 27.5 °F 33.8 °F 93% 29.59 in 10.0 mi NW 11.5 mph - N/A   Overcast
11:17 PM 35.6 °F 28.0 °F 33.8 °F 93% 29.60 in 10.0 mi NW 10.4 mph - N/A   Overcast
11:31 PM 35.6 °F 28.0 °F 33.8 °F 93% 29.60 in 10.0 mi NW 10.4 mph - N/A   Mostly Cloudy
11:55 PM 35.8 °F 28.8 °F 34.3 °F 94% 29.60 in 10.0 mi WNW 9.2 mph - 0.00 in   Partly Cloudy